, SD

(GMT )
Rapid City

Weather History for KRAP - April, 2013

Change the Weather History Date:

Thursday, April 25, 2013

  Actual Average Record
Temperature  
Mean Temperature 48 °F 48 °F  
Max Temperature 69 °F 62 °F 86 °F (1962)
Min Temperature 27 °F 35 °F 22 °F (2002)
Degree Days  
Heating Degree Days 17 17  
Month to date heating degree days 789 522  
Since 1 July heating degree days 6746 6650  
Cooling Degree Days 0 0  
Month to date cooling degree days 0 0  
Year to date cooling degree days 0 0  
Moisture  
Dew Point 25 °F    
Average Humidity 49    
Maximum Humidity 85    
Minimum Humidity 12    
Precipitation  
Precipitation 0.00 in 0.08 in 1.64 in (1984)
Month to date precipitation 3.01 1.37  
Year to date precipitation 4.44 3.04  
Snow  
Snow 0.00 in 0.20 in 8.10 in (1984)
Month to date snowfall 43.4 7.0  
Since 1 July snowfall 76.7 39.1  
Snow Depth 1.00 in    
Sea Level Pressure  
Sea Level Pressure 29.94 in    
Wind  
Wind Speed 8 mph (ESE)    
Max Wind Speed 17 mph    
Max Gust Speed 22 mph    
Visibility 10 miles    
Events      
T = Trace of Precipitation, MM = Missing Value Source: NWS Daily Summary

Daily Weather History Graph

Daily Weather History Graph

Search for Another Location

Airport or City:

Trip Planner

Search our weather history database for the weather conditions in past years. The results will help you decide how hot, cold, wet, or windy it might be!

Date:

Astronomy

Apr. 25, 2013 Rise Set
Actual Time 5:52 AM MDT 7:48 PM MDT
Civil Twilight 5:21 AM MDT 8:19 PM MDT
Nautical Twilight 4:43 AM MDT 8:58 PM MDT
Astronomical Twilight 4:01 AM MDT 9:39 PM MDT
Moon 8:05 PM MDT (4/25) 5:36 AM MDT (4/25)
Length of Visible Light 14h 58m
Length of Day
13h 56m
Full, 100% of the Moon is Illuminated
Apr 25
Full
Apr 25
Full
May 2
Last Quarter
May 9
New
May 17
First Quarter

Hourly Weather History & Observations

Time (MDT) Temp. Windchill Dew Point Humidity Pressure Visibility Wind Dir Wind Speed Gust Speed Precip Events Conditions
12:52 AM 30.9 °F 27.5 °F 23.0 °F 72% 30.14 in 10.0 mi East 3.5 mph - N/A   Clear
1:52 AM 28.0 °F 24.2 °F 21.9 °F 78% 30.12 in 10.0 mi ESE 3.5 mph - N/A   Clear
2:52 AM 32.0 °F 24.2 °F 24.1 °F 73% 30.07 in 10.0 mi South 9.2 mph - N/A   Clear
3:52 AM 32.0 °F 26.4 °F 25.0 °F 75% 30.05 in 10.0 mi South 5.8 mph - N/A   Clear
4:52 AM 33.1 °F 23.4 °F 26.1 °F 75% 30.02 in 10.0 mi SSE 13.8 mph - N/A   Clear
5:52 AM 28.9 °F 21.9 °F 24.1 °F 82% 30.01 in 10.0 mi SSE 6.9 mph - N/A   Clear
6:52 AM 32.0 °F 24.8 °F 26.1 °F 79% 29.99 in 10.0 mi SSE 8.1 mph - N/A   Clear
7:52 AM 37.0 °F 31.6 °F 28.0 °F 70% 29.98 in 10.0 mi SSE 6.9 mph - N/A   Clear
8:52 AM 42.1 °F 39.2 °F 30.0 °F 62% 29.97 in 10.0 mi ESE 4.6 mph - N/A   Clear
9:52 AM 48.0 °F - 30.9 °F 52% 29.94 in 10.0 mi SE 5.8 mph - N/A   Clear
10:52 AM 55.0 °F - 30.0 °F 38% 29.92 in 10.0 mi SSE 5.8 mph - N/A   Clear
11:52 AM 60.1 °F - 28.0 °F 30% 29.89 in 10.0 mi ESE 5.8 mph - N/A   Clear
12:52 PM 64.9 °F - 27.0 °F 24% 29.86 in 10.0 mi East 9.2 mph - N/A   Clear
1:52 PM 66.9 °F - 21.0 °F 17% 29.84 in 10.0 mi Calm Calm - N/A   Clear
2:52 PM 66.9 °F - 16.0 °F 14% 29.82 in 10.0 mi Variable 4.6 mph - N/A   Clear
3:52 PM 68.0 °F - 17.1 °F 14% 29.80 in 10.0 mi West 8.1 mph 16.1 mph N/A   Clear
4:52 PM 69.1 °F - 15.1 °F 13% 29.80 in 10.0 mi NNW 5.8 mph - N/A   Clear
5:52 PM 64.9 °F - 24.1 °F 21% 29.82 in 10.0 mi NNE 12.7 mph - N/A   Scattered Clouds
6:52 PM 61.0 °F - 30.9 °F 32% 29.83 in 10.0 mi NNE 10.4 mph - N/A   Clear
7:52 PM 50.0 °F - 28.9 °F 44% 29.88 in 10.0 mi North 11.5 mph - N/A   Clear
8:52 PM 46.9 °F - 28.0 °F 48% 29.91 in 10.0 mi North 12.7 mph - N/A   Clear
9:52 PM 45.0 °F 40.1 °F 28.0 °F 52% 29.94 in 10.0 mi North 9.2 mph - N/A   Clear
10:52 PM 42.1 °F 38.4 °F 27.0 °F 55% 29.95 in 10.0 mi WNW 5.8 mph - N/A   Clear
11:52 PM 44.1 °F 38.6 °F 26.1 °F 49% 29.94 in 10.0 mi WNW 10.4 mph - N/A   Clear